Torna al catalogo

STARLINK-5174

AttivoComunicazioniVLEO
NORAD 54067·PAYLOAD·🇺🇸 United States

Lanciato Oct 20, 2022 da Cape Canaveral Space Force Station

Loading…

Prossimi Passaggi (prossime 24 ore)

TLE

AggiornatoSource: CelesTrak SupGP

Epoca: Sep 14, 2026, 20:53 UTC

1 54067C 22136S   26257.87062500  .00013501  00000+0  38619-3 0  2572
2 54067  53.1576 203.9403 0001391 100.8095 146.6970 15.35398412    14

Traccia STARLINK-5174 in tempo reale con AllMySat

Download on the App Store